Regional Weather Roundup
Issued by NWS

Home | Current Version | Previous Version | Graphics & Text | Print | Product List | Glossary Off
Versions: 1 2 3 4 5 6 7 8 9 10 11 12 13 14 15 16 17 18 19 20 21 22 23 24 25 26 27 28 29 30 31 32 33 34 35 36 37 38 39 40 41 42 43 44 45 46 47 48 49 50

000
ASUS45 KBOU 251007
RWRCO

WEATHER ROUNDUP FOR COLORADO
NATIONAL WEATHER SERVICE DENVER/BOULDER CO
400 AM MDT MON MAY 25 2015

NOTE: "FAIR" INDICATES FEW OR NO CLOUDS BELOW 12000 FEET WITH NO
SIGNIFICANT WEATHER AND/OR OBSTRUCTIONS TO VISIBILITY.

COZ001>005-013-030-031-251100-
...NORTHWEST COLORADO...

CITY           SKY/WX    TMP DP  RH WIND       PRES   REMARKS
CRAIG          CLOUDY    44  41  89 CALM      29.97S
HAYDEN         CLOUDY    39  36  87 CALM      29.98S
MEEKER         CLOUDY    41  38  89 CALM      29.98S
MOUNT WERNER   NOT AVBL
STEAMBOAT SPGS CLOUDY    38  37  97 CALM      29.98S
WALDEN         CLOUDY    36  34  93 CALM      29.98S
$$

COZ006>008-011-251100-
...WEST CENTRAL VALLEYS...

CITY           SKY/WX    TMP DP  RH WIND       PRES   REMARKS
GRAND JUNCTION CLOUDY    47  46  97 E5        29.95R
MONTROSE       CLOUDY    46  44  93 W3        30.00S
EAGLE          CLOUDY    37  36  93 SE3       30.00S
RIFLE          CLOUDY    46  42  86 CALM      29.98R
DELTA          CLOUDY    49  45  88 MISG      29.98S
NUCLA          CLOUDY    45  43  93 E8        30.00S
$$

COZ017>023-064>068-251100-
...SOUTHWEST COLORADO...

CITY           SKY/WX    TMP DP  RH WIND       PRES   REMARKS
DURANGO        CLOUDY    42  40  92 N5        30.01R
CORTEZ         CLOUDY    47  43  86 E5        29.98R
PAGOSA SPRINGS MOCLDY    37  37 100 CALM      30.04S
TELLURIDE      CLOUDY    38  34  85 W3        30.08R
WOLF CREEK PAS NOT AVBL
$$

COZ009-010-012-014-032>034-037-058>063-251100-
...CENTRAL COLORADO...

CITY           SKY/WX    TMP DP  RH WIND       PRES   REMARKS
ASPEN          CLOUDY    36  34  92 CALM      30.00S
BUENA VISTA    DRIZZLE   39  36  87 NW6       29.98S
COPPER MTN     CLOUDY    28  23  80 W15G23    30.06F WCI  17
BERTHOUD PASS  CLOUDY    21  14  73 NW20      30.06S WCI   6
COTTONWOOD PAS CLOUDY    36  32  87 W5        30.02S
GUNNISON       MOCLDY    37  34  87 CALM      30.03S
KREMMLING      MOCLDY    36  34  93 CALM      29.99S
LEADVILLE      CLOUDY    31  30  96 NW7       30.01S WCI  24
SALIDA         CLOUDY    44  38  80 NW9       30.04S
SUNLIGHT       CLOUDY    32  32 100 CALM      30.10S FOG
WILKERSON PASS SNOW      30  28  93 SW8       30.06F VSB 1/2 WCI  23
$$

COZ069>075-251100-
...SAN LUIS VALLEY/SANGRE DE CRISTO MOUNTAINS...

CITY           SKY/WX    TMP DP  RH WIND       PRES   REMARKS
ALAMOSA        PTCLDY    33  30  88 SW6       29.98S WCI  28
LA VETA PASS   CLOUDY   N/A N/A N/A MISG      30.03F
SAGUACHE       CLOUDY    41  36  81 CALM      29.99S
$$

COZ035-036-038>040-251100-
...NORTHERN COLORADO FRONT RANGE...

CITY           SKY/WX    TMP DP  RH WIND       PRES   REMARKS
DENVER INTL AP MOCLDY    44  40  85 SW6       29.87S
DMNS CITY PARK   N/A     44  40  88 S3        29.87S
AURORA         NOT AVBL
FRONT RANGE AP PTCLDY    45  43  93 SW7       29.89R
ERIE MUNI ARPT PTCLDY    40  39  95 CALM      29.87S
BOULDER MUN AP PTCLDY    45  37  76 CALM      29.87R
CENTENNIAL     MOCLDY    42  39  89 SW7       29.88F
BROOMFIELD     PTCLDY    43  37  81 W6        29.88F
FORT COLLINS   PTCLDY    48  41  76 CALM      29.88S
LONGMONT       MOCLDY    44  41  90 SW3       29.88F
$$

COZ041-046-047-076>085-087-088-251100-
...PIKES PEAK/PALMER DIVIDE AND SOUTHERN FOOTHILLS...

CITY           SKY/WX    TMP DP  RH WIND       PRES   REMARKS
COLO. SPRINGS  CLOUDY    47  39  74 NW6       29.90S
A. F. ACADEMY  CLOUDY    44  38  79 NW3       29.91R
ELLICOTT       NOT AVBL
FALCON         CLOUDY    45  37  71 NW7       29.92R
FORT CARSON    MOCLDY    45  40  82 W6        29.88S
LIMON          PTCLDY    43  42  97 NW3       29.87R
MONUMENT HILL  NOT AVBL
TRINIDAD       CLEAR     41  36  82 W6        29.88F
$$

COZ042>045-048>051-090-091-251100-
...NORTHEAST COLORADO...

CITY           SKY/WX    TMP DP  RH WIND       PRES   REMARKS
GREELEY ARPT   PTCLDY    45  43  93 CALM      29.86S
AKRON          MOCLDY    44  44 100 W9        29.83R
BURLINGTON     CLEAR     46  43  89 W12       29.82S
WRAY           CLOUDY   N/A N/A N/A SW5       29.80F
STERLING       MOCLDY    46  46 100 W5        29.81R
HOLYOKE        NOT AVBL
FORT MORGAN    MOCLDY    44  42  92 NW6       29.85R
$$

COZ086-089-092>099-251100-
...SOUTHEAST COLORADO...

CITY           SKY/WX    TMP DP  RH WIND       PRES   REMARKS
PUEBLO         PTCLDY    44  43  96 W3        29.85F
LA JUNTA       CLEAR     46  43  89 W9        29.82F
LAMAR          CLEAR     46  45  96 SW7       29.80R
SPRINGFIELD      N/A     42  39  89 SE3       29.84R
$$


USA.gov is the U.S. government's official web portal to all federal, state and local government web resources and services.